Other Public Products
Issued by NWS Grand Forks, ND

Current Version | Previous Version | Text Only | Print | Product List | Glossary On
Versions: 1 2 3 4 5 6 7 8 9 10 11 12 13 14 15 16 17 18 19 20 21 22 23 24 25 26 27 28 29 30 31 32 33 34 35 36 37 38 39 40 41 42 43 44 45 46 47 48 49 50
000
FPUS83 KFGF 270831
OPUFGF
PRAIRIE TO PINES WEATHER ROUNDUP
NATIONAL WEATHER SERVICE EASTERN NORTH DAKOTA/GRAND FORKS ND
200 AM CST MON FEB 27 2017

 **SATELLITE DATA USED TO AUGMENT SKY COVER AT AUTOMATED STATIONS**
 *****  WEATHER ACROSS EASTERN NORTH DAKOTA  *****

CITY           SKY/WX    TMP DP  RH WIND       PRES   REMARKS
GRAND FORKS    FAIR       7   0  73 S7        29.91R WCI  -5
GRAND FORKS AF FAIR       7   2  80 SW3       29.90S
GRAND CITY NWS NOT AVBL
BUXTON         NOT AVBL
DEVILS LAKE    FAIR       8   5  87 SW13      29.85R WCI  -8
FARGO          CLOUDY    21  15  78 S8        29.92R WCI  11
WAHPETON ARPT    N/A     19  12  73 E6        29.91S WCI  11
$$

 *****  WEATHER ACROSS CENTRAL AND WESTERN NORTH DAKOTA  *****

CITY           SKY/WX    TMP DP  RH WIND       PRES   REMARKS
JAMESTOWN      CLOUDY    21  17  84 CALM      29.86R
BISMARCK       FAIR      12  10  92 CALM      29.86S
MINOT          FAIR      14  10  84 SW8       29.81R WCI   3
MINOT AFB      FAIR       9   6  87 W9        29.80S WCI  -4
GARRISON         N/A      7   4  87 CALM      29.81S
WILLISTON      FAIR      11   7  84 N13       29.82R WCI  -4
DICKINSON      CLOUDY    15  11  83 S7        29.74F WCI   5
HETTINGER      CLOUDY    20  16  84 SE7       29.77S WCI  11
$$

 *****  OTHER OBSERVATIONS NORTHEAST NORTH DAKOTA  *****

CITY           SKY/WX    TMP DP  RH WIND       PRES   REMARKS
WALHALLA       NOT AVBL
LANGDON        NOT AVBL
CAVALIER         N/A     16   9  73 SW6       29.87R WCI   7
GRAFTON        CLOUDY     9   5  85 S8        29.91R WCI  -4
CANDO          NOT AVBL
FORT TOTTEN      N/A      8   7  94 S5        29.95S WCI   0
ROLLA          FAIR       7   5  92 SW12      29.79S WCI  -9
RUGBY            N/A      5   3  92 SW7       29.82S WCI  -7
 ***** THE ABOVE OBSERVATIONS ARE NON NWS ARE NOT QUALITY
        CONTROLLED AND MAY MIS-REPORT RAIN FOR SNOW...
$$

 *****  OTHER OBSERVATIONS SOUTHEAST NORTH DAKOTA *****

CITY           SKY/WX    TMP DP  RH WIND       PRES   REMARKS
COOPERSTOWN    FAIR       3   0  85 S5        29.88R WCI  -6
VALLEY CITY    CLOUDY    21  21 100 S3        29.90R
OAKES          NOT AVBL
GWINNER        CLOUDY    23  21  93 E6        29.89R WCI  16
SHEYENNE NWR     N/A     20  14  77 SE3       29.95S
BUFFALO        NOT AVBL
WYNDMERE         N/A     19  14  79 SE3         N/A
 ***** THE ABOVE OBSERVATIONS ARE NON NWS ARE NOT QUALITY
       CONTROLLED AND MAY MIS-REPORT RAIN FOR SNOW...
$$

  *****  WEATHER ACROSS NORTHERN MINNESOTA  *****

CITY           SKY/WX    TMP DP  RH WIND       PRES   REMARKS
FLAG ISLAND    FAIR       9   5  85 SW9       29.84S WCI  -5
WARROAD        FAIR       9   3  78 SW9       29.87R WCI  -5
ROSEAU         FAIR       7   1  78 S8        29.87R WCI  -6
HALLOCK        CLOUDY    12   9  85 S8        29.88S WCI   1
THF RVR FALLS  FAIR       7   4  87 S6        29.91  WCI  -3
HALSTAD          N/A     15  12  90 S6          N/A  WCI   6
FOSSTON        FAIR       7   3  85 S6        29.90S WCI  -3
BAUDETTE       FAIR       7   3  84 SW5       29.86S WCI  -2
WASKISH        FAIR       5   3  92 S3        29.90R
CROOKSTON      FAIR       9   7  92 S5        29.93R WCI   0
$$
  *****  WEATHER ACROSS CENTRAL AND WEST MINNESOTA  *****

CITY           SKY/WX    TMP DP  RH WIND       PRES   REMARKS
BEMIDJI        FAIR       2  -1  87 CALM      29.90R
PARK RAPIDS    CLOUDY    16   8  71 SE3       29.89F
WADENA         CLOUDY    16  10  79 CALM      29.90S
DETROIT LAKES  CLOUDY    19  14  79 SE3       29.90S
MOORHEAD       CLOUDY    19  12  73 S5        29.93R WCI  13
FERGUS FALLS   CLOUDY    18  10  73 CALM      29.95F
ELBOW LAKE     CLOUDY    18  14  86 CALM      29.90F
MORRIS MN      CLOUDY    21  18  86 NE3       29.88S
STAPLES        CLOUDY    16  10  79 CALM      29.91S
WHEATON        CLOUDY    21  18  86 NE5       29.92S WCI  15
$$
  *****  WEATHER ELSEWHERE ACROSS MINNESOTA  *****

CITY           SKY/WX    TMP DP  RH WIND       PRES   REMARKS
DULUTH         CLOUDY    13   1  59 SW7       29.93R WCI   3
INTRNTL FALLS  FAIR       2  -3  80 SW3       29.89R
ELY            FAIR      -6  -9  84 CALM      29.92R
CLOQUET        CLOUDY    10   3  72 CALM      29.94S
BRAINERD       CLOUDY    17  11  77 CALM      29.93S
HIBBING        FAIR      -5  -8  87 CALM      29.92R
ALEXANDRIA     FAIR      21  17  84 E7        29.89S WCI  12
SAINT CLOUD    CLOUDY    25  18  74 NE3       29.93S
MINNEAPOLIS    FAIR      26  20  77 SE7       29.96S WCI  18
$$

  *****  WEATHER ACROSS SOUTH DAKOTA  *****

CITY           SKY/WX    TMP DP  RH WIND       PRES   REMARKS
SIOUX FALLS    FAIR      27  20  75 SW8       29.92R WCI  19
BROOKINGS      FAIR      26  21  81 S9        29.86S WCI  17
WATERTOWN      FAIR      25  21  85 SW8       29.83R WCI  16
HURON          FAIR      22  19  89 CALM      29.85S
SISSETON         N/A     22  20  92 E5        29.89R WCI  16
ABERDEEN       FAIR      22  18  85 N7        29.87R WCI  13
MITCHELL       FAIR      26  19  74 S12       29.88F WCI  16
PIERRE         FAIR      26  14  60 CALM      29.80F
MOBRIDGE       FAIR      21  16  81 N3        29.81S
RAPID CITY     FAIR      25  15  66 SE6       29.72F WCI  18
$$

  *****  SOME WEATHER IN NEARBY STATES *****

CITY           SKY/WX    TMP DP  RH WIND       PRES   REMARKS
GLASGOW MT     LGT SNOW  18  14  84 E7        29.78R FOG     WCI   9
GREAT FALLS MT LGT SNOW  15  12  88 N7        29.67F FOG     WCI   5
CHEYENNE WY    FAIR      12   6  77 W7        29.70F WCI   1
SCOTTSBLUFF NE FAIR      16   7  67 E8        29.78F WCI   5
OMAHA NE       FAIR      26  19  74 SE6       29.99F WCI  19
DES MOINES IA  FAIR      32  22  66 CALM      30.03S
DAVENPORT IA   FAIR      30  24  78 S3        30.08R
CHICAGO IL     FAIR      34  24  67 CALM      30.08R
EAU CLAIRE WI  CLOUDY    24  18  77 S5        29.99R WCI  18
LA CROSSE WI   FAIR      27  22  81 SE6       30.04R WCI  20
$$

  *****  SOME NATIONAL WEATHER *****

CITY           SKY/WX    TMP DP  RH WIND       PRES   REMARKS
LA GUARDIA NY  FAIR      38  18  44 SW9       30.30R
RALEIGH NC     FAIR      37  23  56 CALM      30.33S
ATLANTA GA     MOCLDY    47  27  45 SE3       30.20F
NEW ORLEANS LA CLOUDY    67  60  78 SE15      30.05F
OKLAHOMA CITY  FAIR      41  35  79 E6        29.92S
ALBUQUERQUE NM FAIR      31  22  69 SE7       29.94S WCI  24
SALT LAKE CITY CLOUDY    40  21  46 S20G29    29.59F
LOS ANGELES CA MOCLDY    52  46  80 E6        29.97S
BOISE ID       FAIR      30  23  75 SE14      29.64F WCI  19
SEATTLE WA     CLOUDY    37  35  92 SE5       29.75S
$$

*** WEATHER ACROSS MANITOBA...SASKATCHEWAN AND ONTARIO ***
                ***ONTARIO***

CITY           SKY/WX    TMP DP  RH WIND       PRES   REMARKS
GERALDTON      CLEAR      0  -6  78 W6        29.87R WCI -12
THUNDER BAY    CLEAR      0  -2  92 W5        29.97R WCI -10
SIOUX LOOKOUT  FLURRIES   5   1  85 SW5       29.82R WCI  -4
TORONTO        PTCLDY    37  21  52 SW16      30.03R
BIG TROUT LK   CLEAR     -9 -15  77 W5        29.76R WCI -21
PICKLE LAKE    NOT AVBL
DRYDEN         FLURRIES  10   5  79 SW7       29.81S WCI   0
KENORA         FLURRIES  10   5  79 SW8       29.81R WCI  -1
$$
                *** MANITOBA***

CITY           SKY/WX    TMP DP  RH WIND       PRES   REMARKS
BRANDON        CLOUDY     5   3  92 SW7       29.78S WCI  -7
DAUPHIN        LGT SNOW  10   7  85 NE13      29.81R WCI  -5
ISLAND LAKE    PTCLDY   -17 -22  76 CALM      29.79S
PILOT MOUND      N/A      3   1  92 SW6         N/A  WCI  -8
THE PAS        CLEAR     -8 -13  77 NW2       29.85S
THOMPSON       CRYSTALS -24 -29  76 CALM      29.81R
WINNIPEG       CLEAR     12   7  79 W9        29.83R WCI   0
LYNN LAKE      PTCLDY   -24 -29  76 W7        29.78R WCI -42
CHURCHILL      CRYSTALS -29 -35  75 W9        29.76F WCI -51
GILLAM         CLEAR    -20 -26  76 W7        29.80R WCI -37
$$
                ***SASKATCHEWAN***

CITY           SKY/WX    TMP DP  RH WIND       PRES   REMARKS
ESTEVAN        MOCLDY    12   5  73 NW12      29.81R WCI  -2
KINDERSLEY     CLEAR     -4  -8  84 SW3       29.80F
LLOYDMINSTER   CLEAR     -4  -9  77 SW9       29.76F WCI -20
PRINCE ALBERT  FLURRIES  -4  -9  77 W3        29.85F
REGINA         PTCLDY     1  -2  85 NW9       29.81S WCI -14
YORKTON        PTCLDY     3   0  85 NW7       29.79R WC



USA.gov is the U.S. government's official web portal to all federal, state and local government web resources and services.